{"data":{"norad_id":46807,"intl_designator":"2020-076A","name":"YAOGAN-30 08A","alt_names":[],"object_type":"PAYLOAD","status":"ACTIVE","operator":null,"country":"PRC","launch_date":"2020-10-26","launch_site_code":"XICLF","launch_vehicle":null,"mission":null,"orbit_class":"UNKNOWN","rcs_meters":null,"size_class":null,"mass_kg":null,"dimensions":null,"purposes":[],"wikipedia_slug":null,"has_3d_model":false,"image_url":null,"decayed_at":null,"tle_current":{"epoch":"2026-05-25T04:36:00.705312Z","epoch_age_seconds":54432,"freshness":"FRESH","line1":"1 46807U 20076A   26145.19167483  .00002337  00000+0  17429-3 0  9997","line2":"2 46807  34.9933 231.3799 0000690 259.6771 100.3859 15.02577021304658","mean_motion":15.02577021,"eccentricity":6.9e-5,"inclination_deg":34.9933,"raan_deg":231.3799,"arg_perigee_deg":259.6771,"mean_anomaly_deg":100.3859,"bstar":0.00017429,"rev_number":30465,"period_min":95.835353520956,"perigee_km":558.47461425228,"apogee_km":559.43193271003,"semimajor_km":6937.0902734812,"source":"CELESTRAK","updated_at":"2026-05-25T13:37:56.364701Z"}}}